パンスターズ彗星

P/2012 T3 ( PanSTARRS )

English version
Home page
Updated on February 20, 2021

---------------------------------------------------------------------

・ プロフィール

発見日 2012年10月10日
発見光度 21.3等
発見者 Pan-STARRS 1 telescope (Haleakala)

・ 写真集

・ 軌道要素

Epoch 2012 Apr. 23.0 TT = JDT 2456040.5                                         
T 2012 Apr. 28.80766 TT                                 Rudenko                 
q   2.3895230            (2000.0)            P               Q                  
n   0.06715306     Peri.  197.26191     +0.65838203     +0.73746642             
a   5.9945810      Node   114.19802     -0.66962277     +0.66524558             
e   0.6013862      Incl.    9.50262     -0.34371274     +0.11658298             
P  14.7                                                                         
From 37 observations 2012 Oct. 10-Nov. 1, mean residual 1".1.                   

・ 光度変化

        m1 = 14.5 + 5 logΔ + 10.0 log r

---------------------------------------------------------------------

軌道要素はM.P.E.C. 2021-B143に掲載されたものです。
光度グラフはComet for Windowsで作成したものです。

---------------------------------------------------------------------

Copyright(C) Seiichi Yoshida (comet@aerith.net). All rights reserved.